METEOR 2-17 DEB

Satellite information

Favourite Embed

Satellite Type and Status

DEBRISIN ORBIT

Key statistics

Satellite METEOR 2-17 DEB at a glance.

Uptime

13733

Days in orbit

Revolutions

≈ 14.0

Per day

Orbit

LEO

Low Earth Orbit

Inclination

82.5

Latest

Satellite identification and parameters

Extended collection of information and parameters for METEOR 2-17 DEB.

Object identification

Identified? True

Debris? True

Object name: METEOR 2-17 DEB

International designator: 1988-005X

Object number (NORAD): 31402

Object ID (CCSDS): 31402

Country: COMMONWEALTH OF INDEPENDENT STATES (CIS)

Current information (Y/N): Y

RCS size: SMALL

Orbital parameters

Period: 102.563 minutes

Inclination: 82.5412 deg

SMA: 7258.07 km

Apoapsis: 888.486 km

Periapsis: 871.385 km

RAAN: 143.6926 deg

Eccentricy: 0.00117808

Argument of periapsis: 8.7705 deg

Mean anomaly: 116.1643 deg

Mean motion: 14.04012585 rev/day

Mean motion (dot): 0.00003162 rev/day2

B* drag term: 0.0019901851 1/REarth

Two-line elements (TLE)

Creation date: Aug. 27, 2025, 8:01 p.m.

Reference frame: TEME

Reference center: EARTH

Epoch: Aug. 27, 2025, 11:16 a.m. UTC

TLE line 0: 0 METEOR 2-17 DEB

TLE line 1: 1 31402U 88005X 25239.46971359 .00003162 00000-0 19902-2 0 9991

TLE line 2: 2 31402 82.5412 143.6926 0011781 8.7705 116.1643 14.04012585957485

Live tracking on map

Real-time ground track for satellite METEOR 2-17 DEB.

In-orbit conjunctions

A list of the most updated potential collisions computed for object METEOR 2-17 DEB.

Target Orbit TCA Probability of collision Miss distance Type
COSMOS 1365 LEO 2025-01-16 01:23:57 0.0001056524 918.0 (m) PAYLOAD
COSMOS 249 DEB LEO 2024-09-27 04:49:33 0.0001898611 727.0 (m) DEBRIS

Associated space launch

Second generation soviet meteorological satellite

METEOR 2-17 DEB was lifted into orbit during the mission ‘Tsiklon-3 | Meteor-2 17’, on board a Tsiklon-3 space rocket.

The launch took place on Jan. 30, 1988, 10:59 a.m. from 32/1.

For more information about the launch, click the button.

Launch to space Tsiklon-3 | Meteor-2 17
Tsiklon-3 | Meteor-2 17

Agency: N/A

Status: Launch Successful

Launch date: Jan. 30, 1988, 10:59 a.m. UTC

Rocket: Tsiklon-3

Launch pad: 32/1

Location: Plesetsk Cosmodrome, Russian Federation

...

Latest news about this satellite

There are no fresh news available about this satellite. Check back as we update our databases every day.


Newsletter sign-up

Weekly statistics, charts and insights to help you stay on top of the space industry.